User: anonymous   Login
Location: Unspecified
(0.0000°N, 0.0000°E)
Time: 02:16:39
(UTC+00:00)
Language:

Transit 2A - Orbit

View from above orbital plane
View from above orbital plane
View from above satellite
View from above satellite

Ground track
Ground track

The orbit data is extracted from the following two-line orbital elements,

1 00045U 60007A   14323.17302596  .00000752  00000-0  21561-3 0  2870
2 00045 066.6955 348.4470 0257844 356.6542 059.3180 14.33116897830706
Epoch (UTC): 19 November 2014 04:09:09
Eccentricity: 0.0257844
inclination: 66.6955°
perigee height: 597 km
apogee height: 966 km
right ascension of ascending node: 348.4470°
argument of perigee: 356.6542°
revolutions per day: 14.33116897
mean anomaly at epoch: 59.3180°
orbit number at epoch: 83070

The dashed part of the orbit path shows where the satellite is in the earth's shadow,  

DLR